Weather Roundup
Issued by NWS Corpus Christi, TX

Home | Current Version | Previous Version | Text Only | Print | Product List | Glossary On
Versions: 1 2 3 4 5 6 7 8 9 10 11 12 13 14 15 16 17 18 19 20 21 22 23 24 25 26 27 28 29 30 31 32 33 34 35 36 37 38 39 40 41 42 43 44 45 46 47 48 49 50
000
ASUS44 KCRP 302310
HRRCRP

SOUTH TEXAS REGIONAL WEATHER ROUNDUP
NATIONAL WEATHER SERVICE CORPUS CHRISTI TX
600 PM CDT FRI SEP 30 2016


TXZ229>244-010000-
...CORPUS CHRISTI AREA OBSERVATIONS...

CITY           SKY/WX    TMP DP  RH WIND       PRES   REMARKS
CORPUS CHRISTI PTSUNNY   84  51  31 N8        30.03F
NAS CORPUS CHR PTSUNNY   81  58  45 E6        30.03F
ROCKPORT       MOSUNNY   79  51  37 N7        30.04F
KINGSVILLE NAS PTSUNNY   82  53  36 CALM      30.03F
ALICE          MOSUNNY   83  48  29 N6        30.04F
FALFURRIAS     CLOUDY    83  47  27 N8        30.03S
$$

...VICTORIA AREA OBSERVATIONS...

CITY           SKY/WX    TMP DP  RH WIND       PRES   REMARKS
VICTORIA       SUNNY     80  53  39 NE7       30.05F
BEEVILLE       FAIR      77  56  47 NE7       30.05F
PLEASANTON     MOSUNNY   80  50  35 N5        30.09F
SAN ANTONIO    MOSUNNY   81  50  33 NE5       30.08F
$$

...LAREDO AREA OBSERVATIONS...

CITY           SKY/WX    TMP DP  RH WIND       PRES   REMARKS
LAREDO         SUNNY     82  56  40 N5        30.06F
COTULLA        SUNNY     85  48  27 NE7       30.06F
DEL RIO        MOSUNNY   78  58  49 S6        30.07F
MCALLEN        MOSUNNY   92  56  29 VRB5      30.00F HX  90
HEBBRONVILLE   CLOUDY    82  49  31 N10       30.06F
$$

...OTHER TEXAS OBSERVATIONS...

CITY           SKY/WX    TMP DP  RH WIND       PRES   REMARKS
BROWNSVILLE    PTSUNNY   85  69  58 NE14G21   30.01F
HOUSTON        MOSUNNY   79  51  37 NE7       30.06F
COL. STATION   SUNNY     80  51  36 N5        30.07F
AUSTIN         MOSUNNY   79  50  36 E7        30.07F
WACO           SUNNY     79  48  33 S3        30.08F
FORT WORTH     MOSUNNY   79  43  27 VRB7      30.08F
WICHITA FALLS  SUNNY     76  49  38 SE5       30.10F
LUBBOCK        MOSUNNY   76  49  38 S14       30.13F
EL PASO        PTSUNNY   76  57  51 CALM      30.14F
$$

...MARINE OBSERVATIONS...

STATION/POSITION TIME  SKY/WX   TEMP    WIND        PRES    VSBY  WAVE   SWELL
                                AIR SEA DIR/SP/G                  HT/PER HT/PER
                 (UTC)          (F)     (DEG/KT/KT) (MB)    (MI)  (FT/S) (FT/S)
PORT ARANSAS     2300            78 83   50/  8/  9 1017.6F
BUOY 90 E PORT A 2250            78 85   10/ 10/ 14 1017.1F         2/ 6   2/ 6
BUOY 45 SE BAFFI 2250            79 84   20/ 12/ 16 1016.4F         3/ 6   2/ 6
BUOY 200 E PT IS 2250            81 86   10/ 12/ 16 1014.8F         4/ 6   2/ 6
BUOY 15 E GALVES 2250            76 84   30/  4/  8 1018.0F         2/ 5   2/ 5
$$



USA.gov is the U.S. government's official web portal to all federal, state and local government web resources and services.